Regional Weather Roundup
Issued by NWS Cleveland, OH

Home | Current Version | Previous Version | Text Only | Print | Product List | Glossary Off
Versions: 1 2 3 4 5 6 7 8 9 10 11 12 13 14 15 16 17 18 19 20 21 22 23 24 25 26 27 28 29 30 31 32 33 34 35 36 37 38 39 40 41 42 43 44 45 46 47 48 49 50

000
ASUS41 KCLE 201310
RWRCLE
OHIO REGIONAL WEATHER ROUNDUP
NATIONAL WEATHER SERVICE WILMINGTON, OH
800 AM EST SAT DEC 20 2014

NOTE: "FAIR" INDICATES FEW OR NO CLOUDS BELOW 12,000 FEET WITH NO
SIGNIFICANT WEATHER AND/OR OBSTRUCTIONS TO VISIBILITY.

OHZ001>008-015>018-024>027-034-035-043-044-201400-
   NORTHWEST OHIO

CITY           SKY/WX    TMP DP  RH WIND       PRES   REMARKS
DEFIANCE       MOCLDY    28  24  85 CALM      30.29R
FINDLAY        CLOUDY    30  23  75 E3        30.28R
TOLEDO EXPRESS CLOUDY    29  21  72 CALM      30.29R
TOLEDO METCALF CLOUDY    30  20  66 S3        30.30S
LIMA           CLOUDY    31  24  75 SE5       30.27R WCI  26
$$

OHZ009>014-019>023-028>033-038-089-201400-
   NORTHEAST OHIO

CITY           SKY/WX    TMP DP  RH WIND       PRES   REMARKS
CLE-HOPKINS    CLOUDY    28  20  71 CALM      30.31S
CLE-LAKEFRONT  CLOUDY    30  21  69 MISG      30.29S
CUY CO. ARPT   CLOUDY    30  25  80 SE5       30.29S WCI  25
LORAIN-ELYRIA  CLOUDY    28  21  75 CALM      30.29S
ASHTABULA      CLOUDY    28  22  78 CALM      30.28F
AKRON-CANTON   CLOUDY    28  19  69 CALM      30.27R
WOOSTER        CLOUDY    27  21  78 NE5       30.27S WCI  22
MANSFIELD      CLOUDY    28  21  75 NE3       30.25S
YOUNGSTOWN     CLOUDY    27  19  72 N3        30.26S
$$

OHZ042-051>053-060>062-070>072-077>081-201400-
  SOUTHWEST OHIO

CITY           SKY/WX    TMP DP  RH WIND       PRES   REMARKS
CINC-COVINGTON LGT SNOW  29  23  78 CALM      30.27R
CINC-LUNKEN    CLOUDY    30  26  85 NE3       30.30S
HAMILTON       CLOUDY    31  25  78 E3        30.30S
DAYTON         CLOUDY    30  24  78 NE3       30.28R
WRIGHT-PAT AFB CLOUDY    29  24  81 NE3       30.28R
DAYTON GENERAL CLOUDY    30  24  78 CALM      30.27R
WILMINGTON     CLOUDY    28  23  81 E3        30.27R
$$

OHZ036-037-039>041-045>050-054>059-063>069-073>076-082>088-201400-
  CENTRAL AND SOUTHEAST OHIO

CITY           SKY/WX    TMP DP  RH WIND       PRES   REMARKS
COLUMBUS       CLOUDY    29  22  75 CALM      30.28R
OSU AIRPORT    CLOUDY    29  23  78 CALM      30.27R
BOLTON FIELD   CLOUDY    28  25  86 CALM      30.28R
RICKENBACK AFB CLOUDY    29  24  81 CALM      30.28R
NEWARK         CLOUDY    30  23  75 CALM      30.27R
MARION         CLOUDY    29  23  78 CALM      30.28R
LANCASTER      CLOUDY    33  26  75 CALM      30.28R
ZANESVILLE     CLOUDY    29  22  75 CALM      30.27S
NEW PHILLY     CLOUDY    30  21  69 NE3       30.29R
$$


USA.gov is the U.S. government's official web portal to all federal, state and local government web resources and services.